Location: 81360 Arifat, France
(43.7204°N, 2.3408°E)
Time: 06:52:53
(UTC+01:00)

Transit 2A - Visible Passes

Search period start: 07 December 2025 00:00
Search period end: 17 December 2025 00:00
Orbit: 590 x 955 km, 66.7° (Epoch: 06 December)

Date Brightness Start Highest point End Pass type
(mag) Time Alt. Az. Time Alt. Az. Time Alt. Az.
07 Dec 8.7 05:49:34 10° SSE 05:53:29 21° ESE 05:57:41 10° ENE visible
07 Dec 6.2 07:30:36 10° SW 07:35:56 63° NW 07:41:53 10° NNE visible
08 Dec 9.1 05:15:00 10° SE 05:17:35 14° E 05:20:16 10° ENE visible
08 Dec 6.2 06:54:16 10° SSW 06:59:38 89° WNW 07:05:37 10° NNE visible
09 Dec 6.6 06:18:09 10° SSW 06:23:25 63° ESE 06:29:17 10° NE visible
10 Dec 7.3 05:42:18 10° S 05:47:17 42° ESE 05:52:49 10° NE visible
10 Dec 6.8 07:25:25 10° WSW 07:30:29 36° NW 07:36:01 10° NNE visible
11 Dec 8.0 05:06:44 10° SSE 05:11:16 28° ESE 05:16:10 10° NE visible
11 Dec 6.4 06:48:43 10° SW 06:54:01 50° NW 06:59:53 10° NNE visible
12 Dec 8.5 04:33:18 16° SE 04:35:19 19° ESE 04:39:14 10° ENE visible
12 Dec 6.1 06:13:47 20° SW 06:17:39 70° NW 06:23:40 10° NNE visible
13 Dec 9.0 03:59:47 12° E 03:59:47 12° E 04:01:30 10° ENE visible
13 Dec 6.1 05:40:13 58° SSW 05:41:22 82° ESE 05:47:23 10° NNE visible
13 Dec 7.4 07:20:50 10° W 07:25:17 23° NW 07:29:59 10° NNE visible
14 Dec 6.9 05:06:09 49° ENE 05:06:09 49° ENE 05:11:00 10° NE visible
14 Dec 7.1 06:46:34 24° WNW 06:48:40 30° NW 06:53:56 10° NNE visible
15 Dec 8.2 04:31:48 24° ENE 04:31:48 24° ENE 04:34:29 10° NE visible
15 Dec 6.7 06:12:11 40° NW 06:12:11 40° NW 06:17:50 10° NNE visible
16 Dec 9.0 03:57:13 12° ENE 03:57:13 12° ENE 03:57:46 10° NE visible
16 Dec 7.0 05:37:36 39° N 05:37:36 39° N 05:41:39 10° NNE visible
16 Dec 7.9 07:17:59 13° NW 07:20:16 15° NNW 07:23:44 10° N visible
